Regional Weather Roundup
Issued by NWS

Home | Current Version | Previous Version | Graphics & Text | Print | Product List | Glossary On
Versions: 1 2 3 4 5 6 7 8 9 10 11 12 13 14 15 16 17 18 19 20 21 22 23 24 25 26 27 28 29 30 31 32 33 34 35 36 37 38 39 40 41 42 43 44 45 46 47 48 49 50
000
ASUS43 KDTX 260701
RWRMI
MICHIGAN HOURLY REGIONAL WEATHER ROUNDUP
NATIONAL WEATHER SERVICE DETROIT/PONTIAC MI
300 AM EDT TUE JUL 26 2016

NOTE: "FAIR" INDICATES FEW OR NO CLOUDS BELOW 12,000 FEET WITH NO
SIGNIFICANT WEATHER AND/OR OBSTRUCTION TO VISIBILITY.

MIZ047>049-052>055-059>063-066>070-074>076-081>083-260800-
SOUTHEAST LOWER MICHIGAN

CITY           SKY/WX    TMP DP  RH WIND       PRES   REMARKS
ADRIAN         CLEAR     68  64  87 N7        30.03R
ALMA           CLEAR     61  61 100 W5        30.03R
ANN ARBOR      CLEAR     64  61  90 CALM      30.02R
BAD AXE        FOG       57  56  97 CALM      30.01S VSB 1/2
CARO           CLEAR     60  59  96 CALM      30.01R
DETROIT CITY   CLEAR     72  62  71 N5        30.01R
DETROIT        MOCLDY    71  60  68 CALM      30.01R
FLINT          CLEAR     66  60  81 CALM      30.02S
GROSSE ILE     PTCLDY    71  62  73 N3        30.00R
HILLSDALE      PTCLDY    64  60  90 N3        30.04R
HOWELL         CLEAR     64  60  88 CALM      30.03S

CITY           SKY/WX    TMP DP  RH WIND       PRES   REMARKS
JACKSON        CLEAR     63  63 100 CALM      30.04S
LAMBERTVILLE   CLEAR     70  65  84 CALM      30.01R
LANSING        CLEAR     65  60  84 W5        30.04R
LAPEER         FAIR      60  58  95 CALM      30.03R
MASON          CLEAR     62  60  93 CALM      30.04R
MONROE         PTCLDY    68  64  88 NW3       30.00S
MT. CLEMENS    CLEAR     67  63  87 NW6       29.99R
PONTIAC        CLEAR     68  61  78 N3        30.01R
PORT HURON     FOG       61  61 100 CALM      30.01R VSB 1/2
TRI CITIES     CLEAR     66  61  84 CALM      30.02R
MIDLAND        FAIR      61  61 100 CALM      30.01S
TROY           CLEAR     73  59  61 CALM      30.03R
SAGINAW HB     CLEAR     64  59  82 SW3       30.01R
$$
MIZ043>046-050>051-056>058-064>065-071>073-077>080-260800-
SOUTHWEST LOWER MICHIGAN

CITY           SKY/WX    TMP DP  RH WIND       PRES   REMARKS
BATTLE CREEK   CLEAR     64  64 100 CALM      30.05R
BENTON HARBOR  PTCLDY    65  62  90 CALM      30.04R
BIG RAPIDS     CLEAR     62  62 100 CALM      30.03S
COLDWATER      CLOUDY    64  63  99 CALM      30.04S
FREMONT        FAIR      63  63 100 CALM      30.03S
HOLLAND        CLEAR     65  63  93 CALM      30.04S
GRAND RAPIDS   CLEAR     67  63  87 W3        30.04R
IONIA          FAIR      64  61  88 W6        30.03R
KALAMAZOO      CLEAR     65  61  87 CALM      30.05R
LUDINGTON      CLEAR     65  65 100 CALM      30.01S
MARSHALL       CLEAR     63  63  98 CALM      30.04S
MOUNT PLEASANT CLEAR     63  62  96 CALM      30.02R
MUSKEGON       CLEAR     67  65  93 CALM      30.03R
SOUTH HAVEN    CLEAR     63  63 100 CALM      30.04R
$$
MIZ016>042-260800-
NORTHERN LOWER MICHIGAN

CITY           SKY/WX    TMP DP  RH WIND       PRES   REMARKS
ALPENA         CLEAR     63  57  81 CALM      30.00S
BEAVER ISLAND  CLEAR     65  59  81 SW5       30.00S
BELLAIRE       CLEAR     59  58  95 CALM      30.02S
CADILLAC       CLEAR     58  55  92 CALM      30.04S
CHARLEVOIX     CLEAR     67  63  87 CALM      30.03S
FRANKFORT      CLEAR     63  61  91 CALM      30.01S
GAYLORD        PTCLDY    62  56  80 W3        30.04S
GRAYLING       CLEAR     53  52  96 CALM      30.04S
HARBOR SPRINGS PTCLDY    61  59  92 CALM      30.01S
HOUGHTON LAKE  CLEAR     58  56  93 CALM      30.04S FOG
MANISTEE       FOG       61  61 100 E5        30.01S VSB 3/4
OSCODA         CLEAR     60  55  82 W5        30.00S
ROGERS CITY    CLEAR     63  55  77 SW7       30.00S
TRAVERSE CITY  CLEAR     64  60  87 CALM      30.00F
$$
MIZ007>008-015-260800-
EASTERN UPPER MICHIGAN

CITY           SKY/WX    TMP DP  RH WIND       PRES   REMARKS
KINROSS        CLEAR     61  58  90 W6        29.99R
MACKINAC ISLAN CLEAR     67  60  77 SW9G16    29.99S
S. S. MARIE    CLEAR     59  57  93 CALM      29.97R
$$
MIZ004>006-011>014-085-260800-
CENTRAL UPPER MICHIGAN

CITY           SKY/WX    TMP DP  RH WIND       PRES   REMARKS
ESCANABA       CLEAR     63  61  94 CALM      29.98S
MENOMINEE      CLEAR    N/A N/A N/A W3        30.01F
SAWYER-GWINN   CLEAR     60  55  84 CALM      30.01S
$$
MIZ001>003-009>011-084-260800-
WESTERN UPPER MICHIGAN

CITY           SKY/WX    TMP DP  RH WIND       PRES   REMARKS
IRON MOUNTAIN  CLEAR     59  55  87 CALM      30.02R
HOUGHTON       CLEAR     63  57  81 W7        29.98R
COPPER HARBOR    N/A     72  57  59 NW6       29.94R
IRONWOOD       CLEAR     63  63 100 SW3       30.00S
$$

ABBREVIATIONS USED IN REMARKS
   TC - TEMPERATURE IN CELSIUS
  WCI - WIND CHILL INDEX
   HX - HEAT INDEX
  VSB - VISIBILITY





USA.gov is the U.S. government's official web portal to all federal, state and local government web resources and services.